Skip Page Navigation
NASA JPL Caltech
NASA Logo - Jet Propulsion Laboratory + View the NASA Portal
+ Center for Near-Earth Object Studies
JPL Home Earth Solar System Stars & Galaxies Technology
JPL Solar System Dynamics
BODIES ORBITS EPHEMERIDES TOOLS PHYSICAL DATA DISCOVERY FAQ SITE MAP
JPL Small-Body Database Browser
Search: [ help ]  
413943 (2006 YD35)
Classification: Main-belt Asteroid          SPK-ID: 2413943
Ephemeris | Orbit Diagram | Orbital Elements | Mission Design | Physical Parameters | Discovery Circumstances | Close-Approach Data ]

[ show orbit diagram ]
Orbital Elements at Epoch 2459000.5 (2020-May-31.0) TDB
Reference: JPL 16 (heliocentric ecliptic J2000)
 Element Value Uncertainty (1-sigma)   Units 
e .1412408799024735 7.3171e-08  
a 2.674643435020146 5.0973e-08 au
q 2.296874442832527 2.1036e-07 au
i 9.231730669411473 5.8687e-06 deg
node 84.9339213232202 4.1942e-05 deg
peri 160.0166255514277 6.1651e-05 deg
M 267.5268214507535 5.828e-05 deg
tp 2459410.903023342246
(2021-Jul-15.40302334)
0.00026826 TDB
period 1597.707472816316
4.37
4.5673e-05
1.25e-07
d
yr
n .2253228492230932 6.4413e-09 deg/d
Q 3.052412427207766 5.8173e-08 au
  Orbit Determination Parameters
   # obs. used (total)      130  
   data-arc span      4785 days (13.10 yr)  
   first obs. used      2006-12-21  
   last obs. used      2020-01-27  
   planetary ephem.      DE431  
   SB-pert. ephem.      SB431-N16  
   condition code      0  
   norm. resid. RMS      .62613  
   source      ORB  
   producer      Otto Matic  
   solution date      2020-Feb-26 07:03:00  

Additional Information
 Earth MOID = 1.2855 au 
 Jupiter MOID = 1.98517 au 
 T_jup = 3.347 
[ hide covariance matrix ]
Orbital Elements at Epoch 2457358.5 (2015-Dec-02.0) TDB
Reference: JPL 16 (heliocentric ecliptic J2000)
 Element Value Uncertainty (1-sigma)   Units 
e .1423000795525058 7.2953e-08  
q 2.293727487467629 2.0993e-07 au
tp 2457812.216203281185
(2017-Feb-27.71620328)
0.00023081 TDB
node 85.00361013716156 4.1947e-05 deg
peri 159.8151131158781 6.1481e-05 deg
i 9.23227058870706 5.869e-06 deg
  Orbit Determination Parameters
   # obs. used (total)      130  
   data-arc span      4785 days (13.10 yr)  
   first obs. used      2006-12-21  
   last obs. used      2020-01-27  
   planetary ephem.      DE431  
   SB-pert. ephem.      SB431-N16  
   condition code      0  
   norm. resid. RMS      .62613  
   source      ORB  
   producer      Otto Matic  
   solution date      2020-Feb-26 07:03:00  

Additional Information
 Jupiter MOID = 1.98517 au 
 T_jup = 3.347 
Orbit Covariance (6×6)
  e q tp node peri i
e 5.322071442201317E-15 -1.500048134299358E-14 -8.67787158013771E-12 3.290698308514566E-14 -1.541730211130561E-12 -1.471902487971581E-14
q -1.500048134299358E-14 4.406880391893806E-14 3.087485576806758E-11 -1.196957006622602E-13 5.57843853692011E-12 5.329077465156322E-14
tp -8.67787158013771E-12 3.087485576806758E-11 5.327555627014817E-8 -2.190438047085009E-10 1.041433812817048E-8 9.094437237016949E-11
node 3.290698308514566E-14 -1.196957006622602E-13 -2.190438047085009E-10 1.759522876152193E-9 -1.778459857554889E-9 1.226917449832515E-11
peri -1.541730211130561E-12 5.57843853692011E-12 1.041433812817048E-8 -1.778459857554889E-9 3.779951771296753E-9 5.215506378518045E-12
i -1.471902487971581E-14 5.329077465156322E-14 9.094437237016949E-11 1.226917449832515E-11 5.215506378518045E-12 3.444570555546386E-11

Ephemeris | Orbit Diagram | Orbital Elements | Mission Design | Physical Parameters | Discovery Circumstances | Close-Approach Data ]

Physical Parameter Table
Parameter Symbol Value Units Sigma Reference Notes
absolute magnitude H 16.4   n/a MPO460573  

413943 (2006 YD35)          Discovered 2006-Dec-21 by Spacewatch at Kitt Peak
Reference: Last Updated: 2014-11-10

[ show close-approach data ]
Ephemeris | Orbit Diagram | Orbital Elements | Mission Design | Physical Parameters | Discovery Circumstances | Close-Approach Data ]
ABOUT SSD CREDITS/AWARDS PRIVACY/COPYRIGHT GLOSSARY LINKS
FirstGov 2020-Aug-08 16:19 UT
(server date/time)  
NASA Home Page
Site Manager:   Ryan S. Park
Webmaster  Alan B. Chamberlin